• In Österreich
  • Länderverzeichnis
  • Für 7 Tage
  • Wassertemperatur
  • Satellitenkarten
  • Wetterkarte
  • News
  • Widgets
  • user-avatar
    Anmelden

    Stündliche Wetter Shusha

    Heute, 27 Mai, Sonntag

    Zeit Temperatur Niederschläge Wind Luftdruck Luftfeuchtigkeit
    00:00 +16°C° 0,1 mm 2 m/S 660 mmHg 65%
    01:00 +15°C° 0 mm 2 m/S 661 mmHg 65%
    02:00 +15°C° 0 mm 2 m/S 661 mmHg 66%
    03:00 +14°C° 0 mm 2 m/S 661 mmHg 67%
    04:00 +15°C° 0 mm 2 m/S 661 mmHg 67%
    05:00 +16°C° 0 mm 2 m/S 662 mmHg 67%
    06:00 +16°C° 0 mm 2 m/S 663 mmHg 67%
    07:00 +17°C° 0 mm 3 m/S 663 mmHg 63%
    08:00 +18°C° 0 mm 4 m/S 664 mmHg 60%
    09:00 +20°C° 0 mm 4 m/S 665 mmHg 56%
    10:00 +20°C° 0 mm 5 m/S 665 mmHg 56%
    11:00 +20°C° 0 mm 5 m/S 665 mmHg 56%
    12:00 +20°C° 0 mm 6 m/S 665 mmHg 56%
    13:00 +19°C° 0,1 mm 6 m/S 665 mmHg 58%
    14:00 +19°C° 0,1 mm 5 m/S 665 mmHg 59%
    15:00 +17°C° 0,1 mm 5 m/S 664 mmHg 61%
    16:00 +16°C° 0 mm 5 m/S 664 mmHg 64%
    17:00 +15°C° 0 mm 4 m/S 664 mmHg 66%
    18:00 +15°C° 0 mm 4 m/S 664 mmHg 69%
    19:00 +13°C° 0 mm 3 m/S 664 mmHg 72%
    20:00 +12°C° 0 mm 3 m/S 664 mmHg 75%
    21:00 +12°C° 0 mm 2 m/S 665 mmHg 79%
    22:00 +12°C° 0 mm 1 m/S 664 mmHg 79%
    23:00 +11°C° 0 mm 1 m/S 664 mmHg 80%

    Morgen, 28 Mai, Montag

    Zeit Temperatur Niederschläge Wind Luftdruck Luftfeuchtigkeit
    00:00 +11°C° 0 mm 1 m/S 664 mmHg 81%
    01:00 +11°C° 0 mm 1 m/S 664 mmHg 80%
    02:00 +11°C° 0 mm 1 m/S 664 mmHg 80%
    03:00 +10°C° 0 mm 1 m/S 663 mmHg 80%
    04:00 +11°C° 0 mm 1 m/S 663 mmHg 77%
    05:00 +12°C° 0 mm 1 m/S 663 mmHg 74%
    06:00 +13°C° 0 mm 1 m/S 663 mmHg 71%
    07:00 +15°C° 0 mm 1 m/S 664 mmHg 64%
    08:00 +18°C° 0 mm 1 m/S 664 mmHg 58%
    09:00 +18°C° 0 mm 2 m/S 664 mmHg 52%
    10:00 +20°C° 0 mm 2 m/S 664 mmHg 48%
    11:00 +21°C° 0 mm 2 m/S 663 mmHg 45%
    12:00 +24°C° 0 mm 2 m/S 663 mmHg 42%
    13:00 +24°C° 0,1 mm 2 m/S 663 mmHg 42%
    14:00 +24°C° 0,1 mm 3 m/S 662 mmHg 41%
    15:00 +25°C° 0,1 mm 3 m/S 662 mmHg 41%
    16:00 +24°C° 0 mm 2 m/S 662 mmHg 44%
    17:00 +23°C° 0 mm 2 m/S 661 mmHg 47%
    18:00 +23°C° 0 mm 2 m/S 661 mmHg 51%
    19:00 +20°C° 0,1 mm 2 m/S 661 mmHg 56%
    20:00 +19°C° 0,1 mm 1 m/S 661 mmHg 60%
    21:00 +16°C° 0,1 mm 1 m/S 661 mmHg 65%
    22:00 +16°C° 0 mm 1 m/S 661 mmHg 65%
    23:00 +16°C° 0 mm 1 m/S 661 mmHg 65%

    übermorgen, 29 Mai, Dienstag

    Zeit Temperatur Niederschläge Wind Luftdruck Luftfeuchtigkeit
    00:00 +16°C° 0 mm 1 m/S 661 mmHg 65%
    01:00 +15°C° 0 mm 1 m/S 661 mmHg 66%
    02:00 +15°C° 0 mm 1 m/S 660 mmHg 67%
    03:00 +14°C° 0 mm 0 m/S 660 mmHg 69%
    04:00 +15°C° 0 mm 1 m/S 661 mmHg 69%
    05:00 +16°C° 0 mm 1 m/S 661 mmHg 68%
    06:00 +16°C° 0 mm 1 m/S 661 mmHg 68%
    07:00 +17°C° 0 mm 2 m/S 662 mmHg 62%
    08:00 +19°C° 0 mm 3 m/S 662 mmHg 56%
    09:00 +20°C° 0 mm 4 m/S 662 mmHg 49%
    10:00 +21°C° 0 mm 4 m/S 662 mmHg 47%
    11:00 +22°C° 0 mm 5 m/S 662 mmHg 46%
    12:00 +22°C° 0 mm 5 m/S 662 mmHg 44%
    13:00 +22°C° 0 mm 5 m/S 662 mmHg 44%
    14:00 +22°C° 0 mm 6 m/S 661 mmHg 45%
    15:00 +21°C° 0 mm 6 m/S 661 mmHg 45%
    16:00 +20°C° 0 mm 5 m/S 661 mmHg 47%
    17:00 +19°C° 0 mm 5 m/S 661 mmHg 49%
    18:00 +17°C° 0 mm 4 m/S 661 mmHg 51%
    19:00 +15°C° 0,2 mm 4 m/S 661 mmHg 54%
    20:00 +14°C° 0,2 mm 3 m/S 661 mmHg 56%
    21:00 +13°C° 0,2 mm 2 m/S 661 mmHg 59%
    22:00 +13°C° 0,6 mm 2 m/S 661 mmHg 63%
    23:00 +12°C° 0,6 mm 2 m/S 661 mmHg 67%

    30 Mai, Mittwoch

    Zeit Temperatur Niederschläge Wind Luftdruck Luftfeuchtigkeit
    00:00 +12°C° 0,6 mm 2 m/S 661 mmHg 71%
    01:00 +10°C° 0 mm 2 m/S 661 mmHg 72%
    02:00 +11°C° 0 mm 1 m/S 661 mmHg 73%
    03:00 +10°C° 0 mm 1 m/S 660 mmHg 74%
    04:00 +11°C° 0 mm 1 m/S 661 mmHg 73%
    05:00 +12°C° 0 mm 1 m/S 661 mmHg 72%
    06:00 +12°C° 0 mm 1 m/S 661 mmHg 71%
    07:00 +13°C° 0 mm 2 m/S 662 mmHg 67%
    08:00 +15°C° 0 mm 2 m/S 662 mmHg 63%
    09:00 +16°C° 0 mm 3 m/S 662 mmHg 58%
    10:00 +17°C° 0 mm 3 m/S 662 mmHg 55%
    11:00 +18°C° 0 mm 3 m/S 662 mmHg 52%
    12:00 +19°C° 0 mm 3 m/S 662 mmHg 49%
    13:00 +20°C° 0 mm 3 m/S 662 mmHg 48%
    14:00 +20°C° 0 mm 3 m/S 662 mmHg 46%
    15:00 +21°C° 0 mm 3 m/S 662 mmHg 44%
    16:00 +20°C° 0 mm 3 m/S 661 mmHg 46%
    17:00 +20°C° 0 mm 3 m/S 661 mmHg 48%
    18:00 +19°C° 0 mm 3 m/S 660 mmHg 50%
    19:00 +18°C° 0 mm 2 m/S 660 mmHg 53%
    20:00 +16°C° 0 mm 2 m/S 660 mmHg 57%
    21:00 +15°C° 0 mm 1 m/S 660 mmHg 60%
    22:00 +14°C° 0 mm 1 m/S 659 mmHg 60%
    23:00 +14°C° 0 mm 1 m/S 659 mmHg 61%

    31 Mai, Donnerstag

    Zeit Temperatur Niederschläge Wind Luftdruck Luftfeuchtigkeit
    00:00 +14°C° 0 mm 1 m/S 659 mmHg 61%
    01:00 +14°C° 0 mm 1 m/S 658 mmHg 61%
    02:00 +14°C° 0 mm 1 m/S 658 mmHg 60%
    03:00 +14°C° 0 mm 1 m/S 657 mmHg 60%
    04:00 +14°C° 0 mm 1 m/S 657 mmHg 58%
    05:00 +15°C° 0 mm 1 m/S 657 mmHg 57%
    06:00 +16°C° 0 mm 1 m/S 657 mmHg 56%
    07:00 +19°C° 0 mm 1 m/S 658 mmHg 51%
    08:00 +20°C° 0 mm 2 m/S 658 mmHg 46%
    09:00 +21°C° 0 mm 2 m/S 658 mmHg 41%
    10:00 +24°C° 0 mm 3 m/S 658 mmHg 39%
    11:00 +25°C° 0 mm 3 m/S 657 mmHg 37%
    12:00 +26°C° 0 mm 3 m/S 657 mmHg 35%
    13:00 +26°C° 0,1 mm 3 m/S 657 mmHg 35%
    14:00 +27°C° 0,1 mm 3 m/S 656 mmHg 35%
    15:00 +27°C° 0,1 mm 3 m/S 656 mmHg 35%
    16:00 +25°C° 0,7 mm 3 m/S 655 mmHg 42%
    17:00 +24°C° 0,7 mm 2 m/S 655 mmHg 50%
    18:00 +21°C° 0,7 mm 2 m/S 654 mmHg 58%
    19:00 +20°C° 0,3 mm 2 m/S 655 mmHg 62%
    20:00 +19°C° 0,3 mm 2 m/S 655 mmHg 65%
    21:00 +18°C° 0,3 mm 2 m/S 655 mmHg 68%
    22:00 +17°C° 0,2 mm 2 m/S 655 mmHg 68%
    23:00 +17°C° 0,2 mm 2 m/S 655 mmHg 67%

    1 Juni, Freitag

    Zeit Temperatur Niederschläge Wind Luftdruck Luftfeuchtigkeit
    00:00 +17°C° 0,2 mm 3 m/S 655 mmHg 66%
    01:00 +16°C° 0 mm 3 m/S 655 mmHg 66%
    02:00 +15°C° 0 mm 2 m/S 655 mmHg 66%
    03:00 +15°C° 0 mm 2 m/S 655 mmHg 66%
    04:00 +16°C° 0 mm 2 m/S 655 mmHg 63%
    05:00 +16°C° 0 mm 2 m/S 655 mmHg 61%
    06:00 +17°C° 0 mm 2 m/S 655 mmHg 58%
    07:00 +19°C° 0 mm 2 m/S 656 mmHg 52%
    08:00 +21°C° 0 mm 2 m/S 656 mmHg 45%
    09:00 +25°C° 0 mm 3 m/S 657 mmHg 38%
    10:00 +25°C° 0 mm 3 m/S 657 mmHg 37%
    11:00 +26°C° 0 mm 3 m/S 657 mmHg 35%
    12:00 +27°C° 0 mm 3 m/S 656 mmHg 34%
    13:00 +28°C° 0 mm 3 m/S 656 mmHg 34%
    14:00 +28°C° 0 mm 3 m/S 656 mmHg 34%
    15:00 +28°C° 0 mm 3 m/S 655 mmHg 34%
    16:00 +27°C° 0 mm 3 m/S 655 mmHg 38%
    17:00 +26°C° 0 mm 3 m/S 655 mmHg 42%
    18:00 +26°C° 0 mm 2 m/S 655 mmHg 47%
    19:00 +23°C° 0,4 mm 2 m/S 655 mmHg 52%
    20:00 +20°C° 0,4 mm 3 m/S 655 mmHg 57%
    21:00 +18°C° 0,4 mm 3 m/S 655 mmHg 62%
    22:00 +17°C° 0,1 mm 3 m/S 655 mmHg 63%
    23:00 +17°C° 0,1 mm 2 m/S 655 mmHg 64%
    Mehr zeigen